Location: Hains Lake
(37.8540°N, 99.8578°W)
Time: 18:31:15
(UTC+00:00)

N. Korean satellite - Visible Passes

Search period start: 07 March 2021 00:00
Search period end: 17 March 2021 00:00
Orbit: 451 x 502 km, 97.2° (Epoch: 06 March)

Date Brightness Start Highest point End Pass type
(mag) Time Alt. Az. Time Alt. Az. Time Alt. Az.
07 Mar 8.6 11:31:19 10° NE 11:34:30 30° E 11:37:42 10° SSE visible
08 Mar 9.8 11:05:41 10° ENE 11:07:36 14° E 11:09:31 10° SE visible
09 Mar 6.5 12:10:39 10° N 12:14:15 73° WNW 12:17:52 10° SSW visible
10 Mar 7.8 11:43:59 10° NNE 11:47:29 45° E 11:50:59 10° S visible
11 Mar 9.4 11:17:51 10° NE 11:20:36 20° E 11:23:21 10° SE visible
12 Mar 6.8 12:23:38 10° N 12:27:08 47° WNW 12:30:38 10° SSW visible
13 Mar 6.9 11:56:45 10° NNE 12:00:23 71° ESE 12:04:02 10° S visible
14 Mar 8.7 11:30:17 10° NE 11:33:32 30° E 11:36:46 10° SSE visible
15 Mar 9.8 11:04:38 10° ENE 11:06:34 14° E 11:08:31 10° SE visible
16 Mar 6.5 12:09:34 10° N 12:13:12 75° WNW 12:16:52 10° SSW visible
